Location: Newark
(33.6439°N, 114.9881°W)
Time: 23:46:06
(UTC+00:00)

A-11 Canister half - Pass Details

Date: 31 August 2019
Orbit: 1527 x 1682 km, 47.3° (Epoch: 17 September)

Event Time Altitude Azimuth Distance (km) Brightness Sun altitude
Rises 17:16:43 0° 247° (WSW) 4,769 11.3 48.5°
Reaches altitude 10° 17:19:49 10° 251° (WSW) 3,806 10.9 49.1°
Maximum altitude 17:29:27 62° 331° (NNW) 1,803 9.8 50.8°
Drops below altitude 10° 17:39:25 10° 51° (NE) 3,925 11.4 52.5°
Sets 17:42:41 0° 55° (NE) 4,926 11.8 53.1°
